This is the latest recevied weather packets stored in our database for station/object K3RUP-1. If no packets are shown the sender has not sent any weather packets the latest 10 day(s).
| Time | Temp. | Humidity | Pressure | Rain* | Wind** | Luminosity | Snow |
|---|---|---|---|---|---|---|---|
| 1777787187 | 7.78° C | 70% | 1012.8 hPa | 0 mm | - | 0 W/m² | - |
| 1777786884 | 7.78° C | 70% | 1012.7 hPa | 0 mm | - | 0 W/m² | - |
| 1777786582 | 7.78° C | 70% | 1012.8 hPa | 0 mm | - | 0 W/m² | - |
| 1777786280 | 7.78° C | 68% | 1012.5 hPa | 0 mm | - | 0 W/m² | - |
| 1777785976 | 8.33° C | 68% | 1012.9 hPa | 0 mm | - | 0 W/m² | - |
| 1777785673 | 8.33° C | 67% | 1012.9 hPa | 0 mm | - | 0 W/m² | - |
| 1777785368 | 8.33° C | 66% | 1012.7 hPa | 0 mm | - | 0 W/m² | - |
| 1777785066 | 8.89° C | 65% | 1012.8 hPa | 0 mm | - | 0 W/m² | - |
| 1777784762 | 8.89° C | 62% | 1012.7 hPa | 0 mm | - | 0 W/m² | - |
| 1777784459 | 8.89° C | 62% | 1012.7 hPa | 0 mm | - | 0 W/m² | - |
| 1777784156 | 9.44° C | 62% | 1013 hPa | 0 mm | - | 0 W/m² | - |
| 1777783854 | 9.44° C | 61% | 1012.9 hPa | 0 mm | - | 0 W/m² | - |
| 1777783550 | 9.44° C | 62% | 1012.8 hPa | 0 mm | - | 0 W/m² | - |
| 1777783248 | 9.44° C | 59% | 1013 hPa | 0 mm | - | 0 W/m² | - |
| 1777782943 | 9.44° C | 63% | 1012.9 hPa | 0 mm | - | 0 W/m² | - |
| 1777782640 | 9.44° C | 62% | 1012.9 hPa | 0 mm | - | 0 W/m² | - |
| 1777782337 | 9.44° C | 63% | 1013.1 hPa | 0 mm | - | 0 W/m² | - |
| 1777782033 | 10° C | 62% | 1013 hPa | 0 mm | - | 0 W/m² | - |
| 1777781730 | 10° C | 60% | 1012.9 hPa | 0 mm | - | 0 W/m² | - |
| 1777781428 | 10.56° C | 60% | 1012.9 hPa | 0 mm | - | 0 W/m² | - |
| 1777781125 | 10° C | 61% | 1013.1 hPa | 0 mm | - | 0 W/m² | - |
| 1777780823 | 10.56° C | 60% | 1012.6 hPa | 0 mm | - | 0 W/m² | - |
| 1777780519 | 10.56° C | 61% | 1012.9 hPa | 0 mm | - | 0 W/m² | - |
| 1777780217 | 10.56° C | 59% | 1012.8 hPa | 0 mm | - | 0 W/m² | - |
| 1777779914 | 10.56° C | 58% | 1012.6 hPa | 0 mm | - | 0 W/m² | - |
* Rain latest hour (hover to see other rain measurements)
** Current wind speed in m/s (hover to see current wind gust speed)